| time (UTC) | temp C | wind direction | speed KPH | gust KPH | rain 1hr cm | rain 24hr cm | rain mn cm | humidity % | barometer mb |
| 20260831042004 | 20 | 353 | 1.6 | 1.6 | 0.00 | 0.03 | 0.03 | 99 | 1015.0 |
| 20260831040004 | 20 | 31 | 1.6 | 1.6 | 0.00 | 0.03 | 0.03 | 99 | 1014.8 |
| 20260831035003 | 20 | 16 | 0.0 | 3.2 | 0.00 | 0.03 | 0.03 | 99 | 1014.8 |
| 20260831033004 | 20 | 55 | 1.6 | 4.8 | 0.00 | 0.03 | 0.03 | 99 | 1014.8 |
| 20260831031004 | 20 | 19 | 1.6 | 4.8 | 0.00 | 0.03 | 0.03 | 99 | 1014.8 |
| 20260831030004 | 20 | 10 | 1.6 | 3.2 | 0.00 | 0.03 | 0.03 | 99 | 1014.7 |
| 20260831025004 | 20 | 9 | 1.6 | 3.2 | 0.00 | 0.03 | 0.03 | 99 | 1014.7 |
| 20260831023004 | 20 | 26 | 1.6 | 4.8 | 0.00 | 0.03 | 0.03 | 99 | 1014.4 |
| 20260831022004 | 20 | 94 | 3.2 | 4.8 | 0.00 | 0.03 | 0.03 | 99 | 1014.6 |
| 20260831021004 | 20 | 29 | 1.6 | 1.6 | 0.00 | 0.03 | 0.03 | 99 | 1014.6 |
| 20260831020003 | 20 | 354 | 0.0 | 3.2 | 0.00 | 0.03 | 0.03 | 99 | 1014.5 |
| 20260831015004 | 20 | 6 | 1.6 | 1.6 | 0.00 | 0.03 | 0.03 | 99 | 1014.6 |
| 20260831014004 | 20 | 4 | 1.6 | 1.6 | 0.00 | 0.03 | 0.03 | 99 | 1014.7 |
| 20260831013005 | 20 | 28 | 0.0 | 1.6 | 0.00 | 0.03 | 0.03 | 99 | 1014.7 |
| 20260831012004 | 20 | 357 | 1.6 | 1.6 | 0.00 | 0.03 | 0.03 | 99 | 1014.4 |
| 20260831011004 | 20 | 353 | 1.6 | 1.6 | 0.00 | 0.03 | 0.03 | 99 | 1014.5 |
| 20260831005004 | 20 | 352 | 1.6 | 1.6 | 0.00 | 0.03 | 0.03 | 99 | 1014.3 |
| 20260831004004 | 20 | 313 | 1.6 | 1.6 | 0.00 | 0.03 | 0.03 | 99 | 1014.3 |
| 20260831003003 | 20 | 333 | 1.6 | 1.6 | 0.00 | 0.03 | 0.03 | 99 | 1014.0 |
| 20260831001004 | 20 | 354 | 1.6 | 1.6 | 0.00 | 0.03 | 0.03 | 99 | 1014.2 |
| 20260831000004 | 20 | 351 | 1.6 | 4.8 | 0.00 | 0.03 | 0.03 | 99 | 1014.0 |
| 20260830235003 | 20 | 0 | 0.0 | 3.2 | 0.00 | 0.08 | 0.03 | 99 | 1014.1 |
| 20260830234004 | 20 | 48 | 1.6 | 3.2 | 0.00 | 0.20 | 0.03 | 99 | 1013.9 |
| 20260830233004 | 20 | 5 | 1.6 | 3.2 | 0.00 | 0.28 | 0.03 | 99 | 1013.8 |
| 20260830232003 | 20 | 30 | 1.6 | 4.8 | 0.00 | 0.28 | 0.03 | 99 | 1013.7 |
| 20260830225003 | 21 | 353 | 1.6 | 3.2 | 0.00 | 0.36 | 0.03 | 99 | 1013.7 |
| 20260830224004 | 21 | 44 | 0.0 | 3.2 | 0.00 | 0.43 | 0.03 | 99 | 1013.5 |
| 20260830223004 | 21 | 6 | 0.0 | 1.6 | 0.00 | 0.48 | 0.03 | 99 | 1013.6 |
| 20260830221003 | 21 | 4 | 0.0 | 1.6 | 0.00 | 0.61 | 0.03 | 99 | 1013.9 |
| 20260830220004 | 21 | 5 | 1.6 | 1.6 | 0.00 | 0.61 | 0.03 | 99 | 1014.0 |
| 20260830215004 | 21 | 350 | 1.6 | 4.8 | 0.00 | 0.64 | 0.03 | 99 | 1014.0 |
| 20260830214004 | 21 | 20 | 0.0 | 3.2 | 0.00 | 0.66 | 0.03 | 99 | 1013.8 |
| 20260830213003 | 21 | 349 | 0.0 | 1.6 | 0.00 | 0.66 | 0.03 | 99 | 1013.8 |
| 20260830212003 | 21 | 11 | 0.0 | 3.2 | 0.00 | 0.66 | 0.03 | 99 | 1013.8 |
| 20260830211003 | 21 | 336 | 1.6 | 3.2 | 0.00 | 0.66 | 0.03 | 99 | 1013.7 |
| 20260830210004 | 21 | 69 | 0.0 | 3.2 | 0.00 | 0.66 | 0.03 | 99 | 1013.5 |
| 20260830205004 | 21 | 347 | 1.6 | 1.6 | 0.00 | 0.66 | 0.03 | 99 | 1013.9 |
| 20260830204003 | 21 | 0 | 1.6 | 1.6 | 0.00 | 0.66 | 0.03 | 98 | 1014.1 |
| 20260830202004 | 21 | 358 | 1.6 | 1.6 | 0.00 | 0.66 | 0.03 | 98 | 1014.1 |
| 20260830201004 | 21 | 351 | 1.6 | 4.8 | 0.00 | 0.66 | 0.03 | 98 | 1013.9 |
| 20260830193004 | 22 | 329 | 1.6 | 3.2 | 0.00 | 0.71 | 0.03 | 97 | 1014.1 |
| 20260830192004 | 21 | 330 | 1.6 | 3.2 | 0.00 | 0.71 | 0.03 | 97 | 1013.9 |
| 20260830191003 | 21 | 4 | 1.6 | 4.8 | 0.00 | 0.71 | 0.03 | 97 | 1014.0 |
| 20260830190004 | 21 | 90 | 0.0 | 3.2 | 0.00 | 0.71 | 0.03 | 97 | 1013.6 |
| 20260830185004 | 21 | 350 | 1.6 | 4.8 | 0.00 | 0.74 | 0.03 | 97 | 1013.5 |
| 20260830184004 | 21 | 349 | 1.6 | 3.2 | 0.00 | 0.76 | 0.03 | 97 | 1013.7 |
| 20260830183004 | 21 | 18 | 3.2 | 4.8 | 0.00 | 0.79 | 0.03 | 97 | 1013.6 |
| 20260830182004 | 21 | 20 | 0.0 | 4.8 | 0.00 | 0.79 | 0.03 | 99 | 1013.5 |
| 20260830181004 | 21 | 21 | 0.0 | 3.2 | 0.00 | 0.81 | 0.03 | 99 | 1013.7 |
| 20260830180004 | 21 | 358 | 1.6 | 3.2 | 0.00 | 0.81 | 0.03 | 99 | 1013.7 |
| 20260830175004 | 21 | 348 | 1.6 | 4.8 | 0.00 | 0.84 | 0.03 | 99 | 1013.8 |
| 20260830174003 | 21 | 43 | 1.6 | 3.2 | 0.00 | 0.84 | 0.03 | 98 | 1013.7 |
| 20260830173004 | 21 | 24 | 1.6 | 3.2 | 0.00 | 0.86 | 0.03 | 98 | 1013.8 |
| 20260830172003 | 21 | 45 | 1.6 | 4.8 | 0.00 | 0.86 | 0.03 | 99 | 1013.9 |
| 20260830171003 | 21 | 22 | 0.0 | 4.8 | 0.00 | 0.86 | 0.03 | 99 | 1013.9 |
| 20260830170004 | 20 | 2 | 1.6 | 4.8 | 0.00 | 0.86 | 0.03 | 99 | 1014.0 |
| 20260830165004 | 20 | 32 | 1.6 | 3.2 | 0.00 | 0.86 | 0.03 | 99 | 1014.1 |
| 20260830163004 | 19 | 28 | 1.6 | 8.0 | 0.00 | 0.86 | 0.03 | 99 | 1014.3 |
| 20260830162004 | 19 | 55 | 1.6 | 3.2 | 0.00 | 0.86 | 0.03 | 99 | 1014.2 |
| 20260830161004 | 19 | 28 | 1.6 | 3.2 | 0.00 | 0.86 | 0.03 | 99 | 1014.5 |
| 20260830160003 | 19 | 39 | 1.6 | 3.2 | 0.00 | 0.86 | 0.03 | 99 | 1014.5 |
| 20260830155004 | 19 | 27 | 1.6 | 3.2 | 0.00 | 0.86 | 0.03 | 99 | 1014.2 |
| 20260830154004 | 19 | 347 | 1.6 | 3.2 | 0.00 | 0.86 | 0.03 | 99 | 1014.1 |
| 20260830153004 | 19 | 6 | 1.6 | 3.2 | 0.00 | 0.86 | 0.03 | 99 | 1013.9 |
| 20260830152003 | 19 | 27 | 1.6 | 3.2 | 0.00 | 0.86 | 0.03 | 99 | 1013.7 |
| 20260830151004 | 19 | 4 | 1.6 | 3.2 | 0.00 | 0.86 | 0.03 | 99 | 1013.7 |
| 20260830145004 | 19 | 351 | 1.6 | 3.2 | 0.00 | 0.86 | 0.03 | 99 | 1013.9 |
| 20260830142003 | 18 | 45 | 1.6 | 1.6 | 0.00 | 0.86 | 0.03 | 99 | 1013.7 |
| 20260830140004 | 18 | 47 | 0.0 | 1.6 | 0.00 | 0.86 | 0.03 | 99 | 1013.8 |
| 20260830135003 | 18 | 357 | 0.0 | 1.6 | 0.00 | 0.86 | 0.03 | 99 | 1013.9 |
| 20260830134004 | 18 | 316 | 0.0 | 3.2 | 0.00 | 0.86 | 0.03 | 99 | 1013.8 |
| 20260830133004 | 18 | 343 | 0.0 | 3.2 | 0.00 | 0.86 | 0.03 | 99 | 1013.6 |
| 20260830132004 | 18 | 343 | 1.6 | 3.2 | 0.00 | 0.86 | 0.03 | 99 | 1013.7 |
| 20260830131004 | 18 | 0 | 1.6 | 3.2 | 0.00 | 0.86 | 0.03 | 99 | 1013.9 |
| 20260830124004 | 17 | 17 | 1.6 | 3.2 | 0.00 | 0.86 | 0.03 | 99 | 1013.9 |
| 20260830123004 | 17 | 335 | 1.6 | 3.2 | 0.00 | 0.86 | 0.03 | 99 | 1014.0 |
| 20260830121004 | 17 | 11 | 1.6 | 1.6 | 0.00 | 0.86 | 0.03 | 99 | 1013.7 |
| 20260830120004 | 17 | 5 | 0.0 | 1.6 | 0.00 | 0.86 | 0.03 | 99 | 1013.7 |
| 20260830115004 | 17 | 349 | 1.6 | 3.2 | 0.00 | 0.86 | 0.03 | 99 | 1013.6 |
| 20260830114004 | 17 | 340 | 0.0 | 3.2 | 0.00 | 0.86 | 0.03 | 99 | 1013.6 |
| 20260830113004 | 17 | 349 | 1.6 | 4.8 | 0.00 | 0.86 | 0.03 | 99 | 1013.3 |
| 20260830111004 | 17 | 355 | 1.6 | 4.8 | 0.03 | 0.86 | 0.03 | 99 | 1013.4 |
| 20260830105003 | 17 | 23 | 1.6 | 3.2 | 0.03 | 0.86 | 0.03 | 99 | 1013.2 |
| 20260830104004 | 17 | 349 | 1.6 | 4.8 | 0.03 | 0.86 | 0.03 | 99 | 1013.3 |
| 20260830103004 | 17 | 351 | 0.0 | 8.0 | 0.03 | 0.86 | 0.03 | 99 | 1013.4 |
| 20260830101004 | 17 | 47 | 1.6 | 3.2 | 0.00 | 0.84 | 0.00 | 99 | 1013.2 |
| 20260830100004 | 17 | 1 | 1.6 | 3.2 | 0.00 | 0.84 | 0.00 | 99 | 1013.2 |
| 20260830095004 | 17 | 326 | 1.6 | 3.2 | 0.00 | 0.84 | 0.00 | 99 | 1013.4 |
| 20260830094004 | 17 | 341 | 1.6 | 3.2 | 0.00 | 0.84 | 0.00 | 99 | 1013.5 |
| 20260830093004 | 17 | 349 | 1.6 | 3.2 | 0.00 | 0.84 | 0.00 | 99 | 1013.4 |
| 20260830092004 | 17 | 5 | 0.0 | 3.2 | 0.00 | 0.84 | 0.00 | 99 | 1013.5 |
| 20260830091003 | 17 | 0 | 0.0 | 1.6 | 0.00 | 0.84 | 0.00 | 99 | 1013.5 |
| 20260830090004 | 17 | 1 | 1.6 | 1.6 | 0.00 | 0.84 | 0.00 | 99 | 1013.3 |
| 20260830084003 | 17 | 13 | 0.0 | 1.6 | 0.00 | 0.84 | 0.00 | 99 | 1013.5 |
| 20260830083003 | 17 | 39 | 0.0 | 1.6 | 0.00 | 0.84 | 0.00 | 99 | 1013.6 |
| 20260830081004 | 17 | 17 | 0.0 | 1.6 | 0.00 | 0.84 | 0.00 | 99 | 1013.8 |
| 20260830073004 | 17 | 345 | 1.6 | 1.6 | 0.00 | 0.84 | 0.00 | 99 | 1014.0 |
| 20260830072004 | 17 | 337 | 0.0 | 1.6 | 0.00 | 0.84 | 0.00 | 99 | 1014.1 |
| 20260830071004 | 17 | 50 | 0.0 | 1.6 | 0.00 | 0.84 | 0.00 | 99 | 1014.3 |
| 20260830070004 | 17 | 10 | 1.6 | 1.6 | 0.00 | 0.84 | 0.00 | 99 | 1014.4 |
| 20260830064004 | 17 | 322 | 0.0 | 1.6 | 0.00 | 0.84 | 0.00 | 99 | 1014.5 |
| 20260830063004 | 17 | 19 | 1.6 | 3.2 | 0.00 | 0.84 | 0.00 | 99 | 1014.5 |
| 20260830062005 | 17 | 354 | 1.6 | 3.2 | 0.00 | 0.84 | 0.00 | 99 | 1014.5 |
| 20260830061003 | 17 | 44 | 0.0 | 1.6 | 0.00 | 0.84 | 0.00 | 99 | 1014.2 |
| 20260830060004 | 17 | 12 | 0.0 | 1.6 | 0.00 | 0.84 | 0.00 | 99 | 1014.6 |
| 20260830055004 | 17 | 24 | 0.0 | 1.6 | 0.00 | 0.84 | 0.00 | 99 | 1014.8 |
| 20260830054004 | 17 | 6 | 1.6 | 1.6 | 0.00 | 0.84 | 0.00 | 99 | 1014.9 |
| 20260830053004 | 17 | 27 | 0.0 | 1.6 | 0.00 | 0.84 | 0.00 | 99 | 1015.2 |
| 20260830052003 | 17 | 356 | 0.0 | 1.6 | 0.00 | 0.84 | 0.00 | 99 | 1015.0 |
| 20260830051004 | 17 | 0 | 0.0 | 1.6 | 0.00 | 0.84 | 0.00 | 99 | 1015.1 |
| 20260830050004 | 17 | 7 | 1.6 | 1.6 | 0.00 | 0.84 | 0.00 | 99 | 1015.2 |
| 20260830045004 | 17 | 26 | 1.6 | 3.2 | 0.00 | 0.84 | 0.84 | 99 | 1015.1 |
| 20260830044003 | 17 | 357 | 3.2 | 4.8 | 0.00 | 0.84 | 0.84 | 99 | 1015.3 |
| 20260830043004 | 17 | 50 | 1.6 | 3.2 | 0.00 | 0.84 | 0.84 | 99 | 1015.3 |